Location: Unspecified
(17.6330°N, 0.0000°E)
Time: 12:01:58
(UTC+00:00)

A-11 Canister half - Pass Details

Date: 19 June 2019
Orbit: 1514 x 1685 km, 47.2° (Epoch: 22 July)

Event Time Altitude Azimuth Distance (km) Brightness Sun altitude
Rises 08:19:34 0° 204° (SSW) 4,929 11.3 38.1°
Reaches altitude 10° 08:22:57 10° 198° (SSW) 3,940 11.0 38.8°
Maximum altitude 08:32:26 46° 128° (SE) 2,141 10.8 41.0°
Drops below altitude 10° 08:41:42 10° 59° (ENE) 3,869 12.1 43.1°
Sets 08:44:57 0° 54° (NE) 4,835 12.3 43.9°
